Wind_Speed
8 4 4 6 5 5 5 5 7 6 4 2 2 1 3 3 3 4 4 5 13 9 10 14 12 12 10 8 13 21 26 23 21 24 26 28 31 34 35 35 36 38 41 41 36 36 38 40 39 36 34 32 30 29 30 31 32 31 31 31 31 30 29 27 27 27 26 26 25 23 22 20 18 16 14 13 11 9 10 11 10 9 10 11 11 11
6 5 7 6 5 6 5 5 6 5 4 3 3 3 4 4 4 6 5 5 10 8 8 11 12 9 7 7 11 19 20 20 23 25 28 31 30 32 34 35 37 37 38 39 36 34 37 40 41 39 37 36 34 32 32 32 32 33 32 33 32 31 30 29 27 27 27 27 26 25 23 21 19 17 15 13 11 10 11 11 10 9 10 12 12 11
4 6 7 6 5 4 4 4 5 5 5 4 4 3 4 3 2 6 7 4 8 8 4 5 8 5 3 5 9 16 19 22 27 28 30 34 32 32 34 35 36 35 36 39 38 35 36 40 41 41 41 39 36 34 32 33 33 33 34 34 33 32 31 30 28 27 27 27 27 25 23 22 20 18 15 12 10 10 11 11 10 10 10 12 13 12
4 6 7 7 4 4 5 5 4 4 4 4 4 3 4 2 2 3 6 3 4 5 1 4 5 2 4 5 7 15 19 19 23 25 26 31 34 35 37 37 38 37 38 40 40 37 35 40 43 43 44 41 39 37 34 34 34 35 35 35 35 33 32 30 29 27 26 27 27 25 24 22 20 18 15 13 12 12 11 10 11 11 12 12 12 12
5 7 6 5 4 5 5 5 4 4 4 5 6 6 5 3 4 6 5 5 2 1 2 4 2 2 5 7 5 10 14 13 18 22 22 27 32 34 34 36 38 40 40 41 43 41 36 39 44 44 45 44 42 41 37 36 35 35 35 35 36 34 32 31 30 28 26 27 28 27 25 24 23 20 18 18 17 16 14 12 12 12 12 12 12 12
7 10 6 4 5 5 5 6 5 5 3 5 7 9 7 5 7 8 4 4 2 4 4 4 1 4 4 8 7 6 9 11 13 17 21 25 28 30 31 33 37 39 41 42 44 46 40 38 43 45 46 46 45 43 39 37 35 34 34 35 36 35 34 32 30 29 28 27 29 30 30 29 27 25 23 22 21 19 17 14 12 12 12 12 12 12
5 8 6 5 6 6 6 7 5 6 4 5 6 7 8 8 8 8 4 2 3 5 5 5 5 4 3 5 8 7 9 11 11 13 19 25 27 30 32 34 36 38 39 41 42 46 43 39 42 47 47 48 47 44 41 38 36 33 33 34 36 36 34 33 32 30 29 28 29 32 33 32 29 27 25 23 20 19 17 15 13 12 12 12 13 13
3 3 5 6 6 6 5 6 7 7 5 5 5 7 7 8 8 9 6 5 5 3 2 0 3 1 3 4 6 8 8 9 11 13 16 24 28 30 33 34 36 38 39 40 40 43 44 41 43 47 49 49 48 45 42 40 38 35 33 32 34 35 35 34 33 32 30 30 29 31 33 33 31 28 25 22 21 19 17 16 14 13 13 13 14 14
2 2 5 6 4 4 5 7 8 8 6 10 7 6 6 7 7 7 6 4 3 2 0 3 2 2 4 4 4 8 8 10 15 17 16 21 28 30 32 34 37 39 40 40 41 43 44 43 43 46 48 49 47 46 44 42 39 36 34 32 32 34 35 35 35 34 32 30 30 31 33 34 32 29 26 23 21 20 19 17 15 14 14 15 15 15
3 4 5 6 4 5 7 10 8 9 9 10 5 4 4 4 3 3 4 4 2 3 4 7 5 3 5 3 4 7 8 11 16 16 16 21 28 31 33 35 36 38 39 40 42 44 45 44 43 44 46 48 48 47 45 43 40 38 36 35 33 33 35 35 35 35 33 32 31 31 32 34 33 31 28 25 23 22 21 19 17 16 15 16 17 16
4 7 5 3 4 6 8 9 9 12 14 7 0 2 4 1 2 2 2 3 4 1 6 9 9 6 4 4 4 7 11 16 16 13 14 19 27 32 34 36 37 38 39 40 41 43 46 45 42 42 45 47 48 48 47 45 42 40 38 37 35 33 34 35 35 35 35 33 33 32 33 33 33 32 30 28 26 24 23 22 20 18 17 17 17 16
4 3 3 1 3 3 3 5 5 9 12 7 1 1 1 3 2 3 4 3 3 4 7 7 7 4 3 5 5 10 15 18 17 14 14 18 25 32 35 37 38 39 40 40 40 42 44 44 42 42 45 47 48 48 48 47 45 43 41 38 37 35 35 35 35 35 35 35 34 33 33 32 33 33 32 30 28 25 24 23 22 20 19 19 19 18
3 1 2 2 7 11 4 2 5 4 1 4 3 3 1 2 1 1 2 1 3 5 5 4 5 2 5 7 8 13 15 14 15 16 16 20 26 32 34 36 38 39 40 41 41 41 42 44 44 44 46 47 49 50 50 49 47 45 43 41 39 37 36 36 36 36 35 35 35 34 33 32 32 33 34 32 29 26 24 23 23 22 22 21 21 20
2 2 6 5 5 9 5 2 2 4 2 3 5 4 4 3 2 3 3 1 2 4 5 3 3 1 4 6 8 13 15 17 20 22 24 27 31 34 36 38 38 39 40 41 42 42 42 44 45 46 47 49 50 51 51 50 50 48 46 44 41 38 37 37 37 36 36 36 36 35 34 33 32 34 35 33 31 28 25 24 24 24 23 23 22 21
2 2 3 3 3 6 4 1 3 4 2 2 5 6 5 5 4 3 3 3 3 3 3 1 2 3 4 5 6 9 13 16 19 24 27 29 32 35 35 35 36 38 40 41 42 44 44 45 46 46 47 49 51 52 52 51 51 50 48 46 43 41 39 39 39 38 37 37 36 36 35 34 33 34 34 34 32 30 27 25 25 24 24 24 23 21
2 3 4 2 2 4 5 5 4 2 3 3 2 5 2 3 4 2 3 5 4 1 1 1 2 3 5 3 6 8 10 9 12 18 22 25 28 29 30 33 36 39 40 42 43 45 46 46 46 47 48 49 51 52 52 52 52 52 50 48 45 43 41 40 40 40 39 37 37 37 36 36 35 34 34 35 34 32 29 27 25 25 24 25 24 22
2 2 5 5 3 6 8 5 4 6 2 2 2 1 4 3 3 3 2 1 3 2 1 2 2 4 3 2 9 14 13 12 10 9 15 22 24 26 30 34 39 41 42 44 46 46 47 47 47 47 48 49 51 52 53 53 53 53 52 50 47 44 42 41 41 41 40 39 38 37 38 37 37 36 35 35 35 33 31 29 27 26 25 25 25 23
2 3 4 7 3 8 13 5 4 11 6 1 1 4 5 2 2 3 1 2 4 1 3 1 1 3 4 2 9 16 17 16 15 10 11 16 19 24 30 35 39 43 45 46 47 46 46 47 48 48 48 49 51 53 53 53 53 53 52 50 48 46 45 43 42 41 41 41 40 39 39 39 39 38 37 36 35 34 33 31 29 27 27 26 25 24
2 2 4 7 4 7 12 7 2 11 12 3 2 3 3 2 1 1 2 2 2 1 3 3 1 3 4 4 9 14 15 16 17 14 12 10 15 23 29 34 38 40 41 42 44 46 48 49 49 50 49 50 50 52 53 52 52 52 52 51 49 47 45 44 42 42 42 42 41 40 39 40 40 40 39 38 36 35 34 33 30 28 27 26 25 25
2 2 3 6 8 5 6 7 3 8 11 6 4 5 4 2 2 1 1 3 2 3 3 2 3 2 1 4 7 10 12 13 15 15 14 11 16 27 30 32 36 37 39 42 43 46 49 50 50 51 51 50 50 50 51 51 52 52 52 52 51 48 46 45 43 43 43 42 42 41 40 40 41 41 40 39 38 37 35 34 32 30 28 27 26 25
2 3 2 6 8 5 2 3 3 4 6 7 7 7 6 4 2 1 1 1 3 3 2 2 2 2 5 2 6 9 10 12 14 13 13 16 16 27 35 33 35 38 40 43 45 46 48 49 50 50 51 49 48 48 49 51 52 52 52 52 51 50 49 48 46 44 44 43 41 41 41 41 40 41 42 41 40 39 37 35 34 32 29 28 27 25
2 2 1 3 5 3 2 4 4 3 3 7 6 6 6 5 4 2 1 3 2 2 2 4 3 4 5 2 6 8 8 10 15 16 13 20 23 17 31 35 36 41 43 43 45 45 46 48 49 49 49 48 47 47 48 50 51 51 51 52 51 51 51 50 48 46 45 43 42 41 41 41 40 41 42 42 42 41 40 38 36 34 32 31 29 27
2 2 3 2 2 3 5 4 7 6 5 8 8 6 5 4 5 3 1 3 4 3 2 2 3 4 4 4 7 8 10 14 20 23 19 23 31 23 15 30 33 37 43 44 44 45 45 47 48 48 48 49 48 48 48 49 51 51 52 52 51 51 51 50 49 47 45 44 43 41 41 41 41 41 42 43 44 44 42 41 39 37 36 34 32 31
4 2 3 2 3 4 5 4 7 9 7 6 5 6 6 4 4 1 3 2 1 3 5 2 2 2 4 7 9 10 14 18 22 27 26 26 34 35 16 15 25 26 29 32 34 37 39 42 44 45 47 48 48 48 48 49 50 51 51 51 51 51 51 51 49 48 46 45 43 41 41 41 41 41 42 43 45 46 44 43 42 41 39 37 36 34
3 1 3 3 3 5 5 5 6 6 6 3 3 5 6 6 7 4 1 0 1 3 5 1 1 3 7 8 9 10 13 16 20 27 30 30 33 39 33 13 4 11 15 18 21 25 30 35 39 44 47 49 50 49 49 49 49 50 51 51 52 52 51 50 50 49 48 46 44 42 41 41 41 42 42 43 45 46 46 46 45 44 43 41 40 38
1 1 3 3 2 1 1 2 3 4 4 3 4 6 6 7 8 5 2 3 2 4 6 0 1 7 9 8 10 11 12 13 18 27 33 34 35 37 38 34 26 17 9 7 12 17 21 26 32 37 41 44 48 49 48 48 49 49 50 51 51 51 51 50 50 49 48 47 46 44 42 41 41 42 42 43 44 45 46 47 47 47 46 45 43 42
2 2 2 4 4 3 4 3 3 3 3 4 7 9 7 6 5 3 3 2 1 4 5 2 1 7 10 10 12 12 12 11 14 21 28 32 35 35 35 35 36 33 27 20 12 9 11 16 22 28 32 34 38 41 42 44 45 46 48 49 50 50 50 50 49 49 48 48 47 46 44 42 41 40 40 41 42 44 45 46 47 47 47 47 46 45
3 3 3 4 4 3 5 4 4 3 2 4 7 9 8 7 5 2 1 2 1 4 5 5 3 6 9 9 10 11 12 10 11 16 20 24 30 34 36 37 39 38 35 31 25 18 11 9 13 20 26 30 32 34 36 38 40 42 44 45 47 48 48 49 49 48 48 48 48 47 45 43 41 39 38 38 39 41 43 45 46 46 47 47 48 47
4 1 1 3 3 1 3 3 3 1 2 3 4 7 9 8 5 3 4 4 3 2 6 8 7 6 6 7 9 10 12 11 12 15 16 21 29 34 37 39 42 41 38 35 32 27 22 16 10 11 18 25 29 32 35 36 37 38 40 42 44 45 46 47 47 48 48 48 48 47 45 44 42 41 39 37 37 38 40 42 45 46 46 47 47 47
3 1 0 2 3 3 4 4 2 3 3 4 4 6 8 8 7 6 6 5 4 6 9 9 8 6 3 6 7 10 13 12 15 19 21 24 27 29 33 36 39 41 38 35 33 31 27 23 17 12 11 16 22 28 32 34 36 37 38 39 40 42 44 45 45 47 48 48 48 47 46 44 43 42 41 40 38 37 37 38 41 43 46 47 47 47
3 1 1 4 3 5 5 4 4 3 3 4 5 6 7 8 7 4 5 5 5 6 8 6 5 4 5 9 9 11 14 15 18 23 24 24 24 25 28 32 35 38 38 35 33 32 29 26 21 16 11 9 12 19 25 29 32 34 36 38 39 40 42 43 44 46 47 48 48 47 46 45 44 43 42 41 39 38 37 37 38 39 42 45 46 47
2 1 2 4 4 4 4 5 6 5 4 4 4 5 5 5 5 3 3 2 1 4 6 5 2 3 6 11 11 11 15 17 19 21 22 23 25 25 24 28 33 36 36 35 34 33 31 27 23 21 17 12 7 8 16 23 26 28 31 34 36 38 39 42 44 45 46 47 47 47 46 46 45 44 43 41 40 38 38 37 38 38 39 41 43 45
2 2 1 3 2 3 4 5 6 5 5 4 3 1 2 4 5 4 2 3 3 2 2 1 1 2 6 9 9 8 12 14 16 19 21 22 25 26 22 24 29 31 32 33 33 33 31 28 23 21 21 17 11 7 7 14 20 24 27 30 33 34 35 37 40 43 45 46 46 47 47 46 45 44 43 42 40 38 38 38 38 39 39 40 41 42
2 3 1 2 2 3 5 5 5 5 3 4 3 2 3 4 3 2 1 3 5 5 3 3 2 4 6 7 7 7 7 10 13 19 22 23 26 27 24 24 26 27 27 28 29 30 30 28 23 19 18 18 14 9 5 8 15 20 25 28 30 33 35 34 33 36 41 44 45 46 45 45 45 45 43 42 41 40 39 39 38 38 38 39 39 41
2 3 1 2 3 2 3 5 4 3 4 4 5 4 3 2 2 1 1 2 5 7 6 5 4 5 6 7 9 9 3 9 15 23 25 25 27 26 26 27 26 25 25 24 25 26 27 28 26 21 18 18 14 10 7 2 7 14 20 26 28 30 34 36 34 34 36 40 43 44 44 45 45 44 44 42 42 41 40 39 39 38 37 38 38 39
2 3 1 1 2 0 1 2 1 4 4 6 7 5 2 3 4 1 0 1 5 7 6 5 4 5 8 9 12 16 7 6 11 23 26 24 25 25 26 27 25 24 24 23 23 23 24 24 25 24 21 18 14 9 8 6 1 5 13 21 25 26 30 33 35 36 36 38 41 43 44 44 45 44 44 43 43 42 41 40 39 38 38 38 38 38
3 3 1 1 1 2 1 2 3 4 5 5 4 3 3 3 2 1 0 1 3 5 5 5 3 3 8 9 14 22 15 5 5 14 22 23 23 23 23 24 23 21 21 22 22 22 21 22 23 24 22 20 16 13 11 7 4 2 3 11 18 22 25 28 31 34 34 36 40 43 43 43 44 44 44 44 44 44 42 41 40 39 38 39 39 39
2 3 3 2 2 2 2 2 3 3 3 3 3 3 5 6 5 2 1 2 1 7 8 6 4 4 7 8 13 19 15 1 4 6 17 21 21 21 22 22 22 20 19 20 22 22 21 21 22 23 25 23 21 19 15 10 5 4 3 2 10 15 18 21 25 29 31 34 38 42 43 43 44 44 44 45 45 44 43 42 41 40 40 40 40 40
4 2 3 3 1 2 3 3 3 3 4 4 4 7 10 10 6 3 0 2 1 9 13 9 8 9 8 9 12 12 9 4 1 7 16 19 18 19 20 21 21 19 17 17 20 21 21 21 21 22 24 25 24 22 19 12 7 6 6 3 4 8 10 12 15 20 27 33 37 40 41 41 42 43 44 45 45 45 44 43 42 42 41 41 41 40
4 4 2 3 2 3 3 4 3 2 3 3 4 9 13 11 5 2 2 2 4 14 17 12 11 11 10 12 12 8 3 2 5 11 18 18 16 17 18 19 20 19 17 17 19 21 21 20 21 21 22 25 26 25 22 17 11 10 10 8 6 4 4 5 6 10 16 25 32 37 39 40 41 42 43 45 45 45 44 43 43 42 42 42 42 41
2 2 1 2 3 4 4 4 4 2 1 2 4 10 11 8 4 3 3 2 9 16 17 14 13 13 12 14 13 8 6 9 12 15 18 16 16 17 18 19 19 18 17 17 18 20 21 20 20 20 20 24 27 27 24 21 17 14 14 13 11 9 6 5 6 7 9 13 18 25 31 35 38 41 43 44 44 44 44 44 43 43 43 42 42 42
1 1 0 2 2 2 3 3 3 3 1 2 8 10 5 1 2 3 5 9 11 12 13 14 15 14 14 14 15 14 15 15 16 17 17 16 16 17 19 20 20 18 18 16 15 17 20 20 19 19 18 21 24 26 26 25 23 19 17 16 15 14 12 11 11 11 11 10 11 14 18 22 27 31 36 40 43 45 45 44 44 44 43 43 43 43
3 1 1 2 2 1 1 3 4 4 1 5 8 6 1 2 3 7 12 13 9 9 12 14 15 16 17 17 17 18 18 17 15 16 17 16 15 16 19 21 21 20 20 18 16 16 19 21 19 18 17 19 21 23 24 26 27 25 20 17 16 18 18 17 17 17 16 15 14 14 14 15 17 19 23 29 35 40 44 44 44 44 44 43 43 43
3 3 1 2 2 1 3 3 3 3 2 3 3 1 3 6 8 9 11 11 10 10 12 14 16 18 18 19 20 19 20 19 18 17 16 17 17 16 17 19 21 21 20 20 18 17 18 21 21 19 17 17 19 21 21 23 26 27 26 22 19 20 22 22 21 21 20 20 19 19 18 17 16 17 18 21 24 30 37 41 43 44 44 44 44 44
5 6 3 2 3 3 4 6 5 5 5 5 4 6 9 11 9 8 10 13 14 14 14 16 20 20 18 18 19 20 21 21 22 20 18 18 18 18 17 17 19 20 20 20 20 18 18 19 21 21 19 17 18 20 21 21 23 26 28 26 23 22 23 24 24 23 24 24 24 23 22 21 19 19 20 20 21 24 29 35 39 42 43 44 44 44
7 7 4 2 2 3 7 12 15 15 15 11 8 11 13 12 11 12 15 17 18 18 18 19 21 21 19 17 17 20 22 22 23 24 22 19 19 19 18 18 17 18 20 22 21 19 18 18 19 21 21 18 16 18 20 20 21 23 25 26 25 24 23 23 24 25 25 26 27 26 25 24 23 22 22 23 23 24 26 30 35 39 42 43 44 45
4 8 5 2 1 2 4 6 7 8 11 12 14 17 14 11 12 15 17 20 21 22 22 21 21 21 20 18 18 20 21 22 24 26 25 23 22 20 20 19 18 17 19 21 20 19 18 17 17 19 21 20 17 17 18 19 20 21 23 25 27 26 25 24 25 26 27 27 27 27 26 24 23 23 24 24 25 26 27 29 33 38 41 43 44 45
3 8 5 2 3 4 5 9 10 13 18 20 20 16 11 10 15 17 18 20 22 23 23 23 22 21 20 19 20 21 21 21 23 25 27 26 25 23 21 19 19 19 19 19 19 18 18 17 16 16 18 19 18 17 18 19 19 20 22 24 27 28 27 26 26 27 28 28 27 27 26 25 24 24 24 25 25 27 29 30 32 37 40 42 43 44
7 7 4 2 3 3 7 11 13 14 16 16 13 10 9 13 18 19 20 21 22 24 26 26 25 24 23 22 22 22 23 22 22 24 28 28 27 25 23 21 20 21 21 19 18 18 18 17 16 14 15 16 17 18 18 19 19 20 21 23 26 27 28 28 28 28 29 28 28 28 26 24 23 23 24 25 25 27 30 31 32 35 38 39 40 41
7 4 2 2 1 4 7 9 7 5 7 10 11 10 11 14 16 19 21 22 24 26 28 29 29 28 26 25 24 24 26 26 23 23 27 30 29 27 25 23 21 22 23 21 18 18 19 17 16 15 14 14 15 17 18 18 19 20 20 22 24 26 28 29 29 30 30 28 27 27 27 25 23 23 24 25 25 27 29 31 32 33 36 38 38 39
13 10 8 7 5 8 11 13 10 8 10 14 14 13 13 14 15 17 19 21 24 26 28 29 31 30 29 28 27 26 27 28 26 25 26 30 31 29 27 25 23 22 23 22 19 19 20 18 17 16 14 13 13 15 17 18 19 20 20 21 22 25 27 29 30 31 31 29 27 26 26 25 23 21 22 23 24 26 27 29 31 33 35 37 38 38
Wind_Direction
171 175 216 215 213 201 207 189 191 216 204 207 265 270 267 282 276 237 246 205 181 194 227 214 218 220 204 187 180 180 183 189 192 191 192 192 191 193 193 192 191 192 194 193 194 198 199 201 203 205 206 205 203 200 199 200 202 199 195 194 194 194 195 193 191 189 186 184 187 191 191 190 189 189 193 195 199 206 200 196 200 204 202 197 199 199
164 201 231 220 208 202 216 196 189 230 242 253 261 276 288 251 263 267 257 220 180 193 237 223 227 229 203 191 182 178 184 195 193 189 192 193 192 193 194 194 193 193 193 193 195 197 198 200 201 203 205 205 203 201 200 201 202 201 198 198 197 196 196 196 195 194 191 189 191 196 195 192 190 190 193 194 195 200 196 195 198 201 205 202 200 198
183 233 239 225 211 202 242 225 199 231 240 250 246 258 278 238 282 293 279 258 183 195 255 218 222 241 178 181 188 186 193 200 197 193 194 193 192 193 195 195 194 192 192 193 194 196 198 200 200 202 204 205 205 203 201 201 203 202 201 201 200 199 199 198 198 197 196 194 194 198 199 195 193 191 192 191 188 189 189 193 198 202 208 207 204 199
197 244 240 228 212 195 250 256 224 245 254 245 232 237 250 185 88 284 291 320 165 185 278 157 186 223 149 172 201 199 201 203 202 203 200 196 196 196 196 195 194 192 192 192 193 194 196 199 200 201 202 204 205 204 202 201 203 203 203 203 202 202 202 201 200 199 200 198 195 198 201 199 198 195 192 193 194 193 189 192 200 204 208 210 207 203
229 252 238 213 205 200 235 259 239 231 257 252 230 228 229 173 179 224 281 346 39 305 314 107 88 291 176 180 204 198 202 207 206 207 205 203 203 201 200 198 198 196 194 194 194 194 195 198 201 202 202 202 204 205 203 201 202 204 205 205 204 204 205 204 202 200 200 200 197 195 198 200 203 203 199 200 202 201 200 200 203 204 208 212 209 207
250 253 233 190 210 202 217 252 232 193 231 274 241 222 212 200 218 231 265 332 344 282 251 133 87 287 207 187 195 177 192 206 203 206 209 207 205 203 202 201 201 201 198 197 197 197 197 199 201 202 202 202 203 206 206 203 203 205 207 207 205 205 206 207 206 202 200 201 198 194 195 198 201 205 204 202 203 203 203 205 206 207 209 212 210 209
249 242 207 191 213 202 210 244 228 176 197 269 240 201 196 205 229 244 235 187 219 255 243 175 186 265 283 207 194 175 191 201 200 210 213 210 206 204 204 202 202 202 201 200 200 200 200 201 201 201 201 202 203 206 207 206 205 206 207 207 206 206 208 209 208 205 202 202 200 196 196 199 202 207 206 204 204 205 205 206 209 212 212 212 211 210
239 225 203 206 208 198 212 237 221 170 168 251 224 156 169 196 219 236 216 192 219 241 335 188 159 177 299 238 185 171 188 200 208 217 214 211 209 205 205 204 203 203 202 201 200 201 201 202 202 202 202 203 204 206 207 206 207 208 208 208 208 208 210 211 210 208 205 203 203 199 199 201 205 210 210 207 206 206 207 208 211 214 215 214 213 210
258 156 194 197 192 203 217 231 212 164 187 251 232 161 169 190 205 217 196 197 214 119 52 260 143 128 279 277 159 167 188 205 216 220 213 209 209 207 206 205 205 205 205 203 202 202 202 204 205 204 204 204 205 206 207 207 208 208 210 210 210 210 211 213 212 210 208 206 206 204 202 203 206 211 212 210 208 208 210 212 214 216 216 215 213 211
244 212 198 157 166 211 224 236 212 168 206 247 233 199 206 182 195 196 154 153 119 107 214 220 182 178 267 286 148 167 198 216 221 221 214 209 207 207 207 206 206 206 205 205 204 204 204 205 206 206 205 204 205 206 207 208 209 209 210 210 211 212 213 214 214 212 211 209 208 208 207 206 206 208 211 212 212 211 213 216 217 216 214 213 212 212
272 261 244 156 183 219 225 238 220 196 214 236 186 217 235 110 82 72 76 99 108 228 242 215 195 190 251 277 182 178 204 212 219 220 209 208 207 206 207 206 205 206 205 205 205 205 205 206 207 206 205 205 205 206 206 207 209 210 210 211 213 214 214 215 215 214 213 211 211 212 211 210 208 208 210 212 213 212 213 215 215 213 212 212 212 212
335 281 246 223 32 3 252 253 252 224 218 217 172 136 265 322 38 47 2 56 132 251 259 216 187 172 226 263 223 210 216 211 214 215 203 204 205 204 205 205 204 205 205 205 204 205 205 205 207 206 205 205 204 204 205 207 209 210 211 212 213 214 215 216 217 216 214 213 213 214 214 213 211 210 211 213 215 215 213 212 211 211 212 211 210 212
335 251 307 333 36 32 8 296 320 311 178 168 170 122 156 286 11 145 287 187 181 249 258 182 135 145 240 252 230 223 229 224 218 217 208 204 204 204 204 203 204 204 204 205 204 204 204 204 205 205 205 204 204 204 205 206 208 210 211 212 213 215 215 216 217 218 216 214 214 215 215 215 212 211 213 216 218 218 216 214 211 210 212 212 210 211
306 291 349 358 12 15 27 77 333 331 27 154 172 143 166 175 119 207 237 214 206 251 262 197 149 206 266 268 231 217 227 226 220 218 213 209 206 205 205 203 203 204 204 205 205 204 204 203 204 205 205 204 204 205 205 206 208 210 211 212 214 216 216 216 217 218 218 216 216 215 215 215 213 212 214 218 220 221 221 218 216 215 216 214 213 213
142 224 343 23 339 338 13 63 226 227 287 254 187 146 153 164 152 196 206 177 201 240 280 260 186 178 204 252 245 236 245 237 227 223 216 213 211 207 205 203 203 204 205 206 206 205 205 204 204 205 205 205 205 206 206 206 208 210 211 213 214 216 217 217 217 218 220 219 217 216 216 215 214 213 215 218 220 223 224 222 221 220 220 220 218 215
99 218 277 311 293 346 4 324 297 210 229 267 175 123 119 186 163 153 184 178 171 153 358 213 212 208 213 268 343 330 303 283 253 235 221 216 212 204 202 201 202 205 205 206 206 206 206 205 205 205 206 207 206 206 206 206 208 209 212 213 215 216 217 218 219 219 221 221 219 217 216 215 215 214 215 217 220 222 223 224 224 223 223 223 222 219
40 237 303 340 325 0 355 314 21 54 223 251 45 40 278 264 145 117 229 238 89 95 270 214 223 294 294 339 3 358 349 343 322 272 236 224 210 198 199 202 203 204 205 206 207 206 206 205 205 206 206 207 207 207 207 208 209 211 212 214 215 216 217 219 221 221 221 222 221 219 218 216 216 216 216 217 218 220 221 224 227 227 226 224 222 221
49 249 320 12 332 331 347 328 60 37 20 98 60 300 290 266 139 112 153 356 49 115 274 314 145 336 353 336 341 355 357 343 336 323 274 242 210 199 204 204 204 205 205 207 207 206 206 206 206 206 207 208 208 208 209 209 210 212 213 215 216 216 217 219 221 223 223 223 223 222 220 218 217 218 219 219 219 220 221 223 225 228 227 225 222 222
19 285 306 10 341 317 358 9 359 3 8 68 168 308 7 121 181 12 122 141 77 161 270 316 54 42 21 331 328 347 350 335 331 330 312 269 213 205 210 208 206 207 206 206 206 206 206 206 206 207 207 208 209 210 210 210 210 212 213 216 217 219 219 220 221 223 224 225 226 225 222 220 219 219 220 221 221 221 222 223 225 226 227 226 223 222
9 46 280 335 342 326 12 31 3 338 350 18 43 10 15 123 176 305 181 154 137 163 212 296 15 30 290 296 319 326 334 338 335 331 327 301 236 213 211 210 206 206 206 206 206 206 206 206 207 207 207 208 209 210 210 210 210 212 213 215 217 219 220 221 222 223 225 226 227 228 227 223 221 221 222 223 223 223 223 224 225 226 226 225 224 222
22 51 291 306 340 355 27 22 1 317 337 13 33 28 6 345 351 298 250 111 117 145 175 144 65 293 253 282 325 321 335 347 344 337 332 324 282 227 214 210 205 205 206 207 207 207 207 206 206 207 207 207 208 209 209 210 211 212 213 214 216 218 219 221 222 224 225 227 228 229 230 228 225 223 223 223 224 225 226 226 227 228 227 226 226 225
24 60 20 326 348 9 297 315 345 344 45 65 56 33 11 357 20 39 326 342 28 81 174 151 134 261 256 345 336 327 348 354 355 355 345 345 338 271 224 213 207 206 207 208 208 207 207 206 205 205 206 206 207 208 209 210 211 212 213 214 216 217 219 221 222 224 226 227 228 230 231 231 229 227 225 224 224 226 228 228 229 230 229 228 229 229
14 93 69 357 305 296 278 310 28 44 74 76 61 34 14 22 44 51 294 315 345 348 288 148 126 236 254 3 350 346 5 6 9 8 359 356 359 346 254 220 212 210 210 209 208 207 207 206 205 204 204 205 206 207 209 210 210 212 214 215 215 216 219 221 223 225 226 228 229 231 232 232 232 230 228 227 226 226 228 230 231 232 232 232 232 233
4 57 51 355 302 322 305 315 29 45 58 53 33 20 12 11 19 348 232 242 324 353 342 1 108 252 300 352 354 1 14 17 19 16 10 7 7 9 359 230 218 215 214 212 209 208 208 207 205 204 204 204 206 207 209 210 211 212 214 215 215 217 219 221 222 224 226 228 230 232 233 233 233 232 230 229 228 227 228 229 232 233 234 235 236 236
356 51 55 28 353 360 355 338 351 16 38 39 338 354 2 351 352 347 312 97 104 6 349 345 171 289 307 333 350 5 12 15 21 23 22 18 14 17 25 36 177 202 208 211 212 211 210 209 206 205 205 205 205 207 209 210 211 212 213 215 216 218 219 221 222 223 225 227 230 232 233 234 234 234 232 231 230 229 229 229 231 233 235 236 237 239
36 81 82 84 75 17 314 318 313 322 350 357 326 344 351 347 356 8 21 33 44 340 335 70 170 299 305 335 354 3 10 7 14 25 29 26 21 21 28 38 49 59 86 153 192 206 211 213 212 209 208 207 206 207 208 210 211 212 214 215 217 218 219 220 221 222 224 226 229 231 233 234 234 235 235 233 232 231 231 231 231 233 235 237 238 240
87 50 67 123 131 173 200 217 256 288 323 322 324 336 336 332 350 47 60 32 44 340 318 200 114 320 317 346 356 354 6 7 6 19 28 29 27 26 26 33 43 47 51 65 95 145 185 204 212 215 214 212 210 210 210 211 212 213 214 215 217 218 219 220 221 222 223 226 228 231 233 234 235 236 237 237 236 234 234 234 234 234 236 237 238 240
97 31 23 95 113 186 203 235 272 282 304 309 320 327 321 313 325 14 27 219 139 21 301 256 1 341 317 342 359 350 354 6 1 2 17 29 30 30 28 30 36 41 42 48 58 70 92 143 190 208 214 216 215 214 214 214 215 215 216 217 217 218 219 220 220 221 223 225 228 231 233 235 236 237 238 239 239 238 237 237 237 238 238 239 239 240
108 80 8 70 54 260 236 265 290 327 320 310 319 315 311 310 299 278 252 224 153 126 251 272 313 315 310 346 8 1 352 2 7 359 9 27 29 30 31 29 29 31 33 36 41 47 57 72 106 166 198 211 215 215 216 217 217 217 218 219 219 219 220 220 220 221 223 225 228 231 234 235 236 237 238 239 240 241 241 240 240 240 241 241 242 243
92 145 162 86 32 323 297 295 343 30 338 311 311 298 298 299 282 258 249 231 202 219 242 267 286 280 323 359 11 14 3 5 20 20 21 25 25 26 29 29 27 26 27 29 31 36 43 52 69 104 153 188 204 212 215 217 218 219 219 220 221 222 222 221 221 222 223 225 229 232 234 235 236 238 238 239 240 242 242 242 242 242 242 243 244 245
65 334 358 85 48 320 307 326 351 354 310 294 294 281 283 295 293 274 260 245 225 240 254 265 274 277 336 358 11 23 19 21 29 28 25 23 22 24 25 25 26 25 24 25 27 29 33 40 53 70 92 131 174 199 209 214 218 219 220 221 221 223 224 223 223 223 224 227 230 232 234 235 236 237 239 240 241 242 243 244 244 244 244 245 245 246
76 5 356 70 53 303 300 341 337 327 319 292 272 267 269 291 307 297 286 282 226 239 257 275 302 297 328 351 6 22 28 31 30 26 24 23 25 26 22 20 23 24 23 22 21 24 27 30 36 44 51 65 99 158 193 207 213 216 218 220 222 224 225 225 225 225 226 228 230 232 234 235 236 237 239 240 241 243 244 245 245 245 246 246 246 247
131 103 30 74 68 283 291 328 331 343 347 299 263 283 278 290 306 295 306 13 10 306 256 266 6 317 333 354 2 16 31 34 30 27 24 21 24 26 21 19 22 23 23 21 17 18 22 24 24 27 34 42 54 85 150 186 199 207 211 214 218 220 221 222 224 226 229 230 232 233 234 235 236 237 239 240 242 243 244 245 245 246 246 247 248 248
116 111 140 125 107 265 287 337 350 345 320 248 246 322 296 296 322 313 339 17 8 8 56 104 65 353 356 7 360 2 39 50 40 34 28 21 23 23 17 17 21 22 21 20 16 14 16 19 19 16 19 28 39 57 93 162 185 197 206 211 216 220 221 222 224 227 230 232 232 233 234 235 237 238 240 241 242 243 244 245 246 247 247 248 248 248
103 103 173 139 116 241 304 20 9 290 241 260 296 300 286 342 30 90 133 44 25 23 32 51 47 14 360 2 352 347 41 93 57 36 27 20 19 17 12 11 15 17 16 13 12 12 12 13 13 9 7 8 15 36 51 93 180 193 203 209 214 221 226 229 231 231 232 233 233 234 234 235 237 239 241 242 242 243 244 246 247 248 248 249 249 250
147 138 164 153 127 158 24 65 202 241 266 299 312 309 334 25 23 14 229 21 28 33 27 20 26 9 356 357 353 344 323 157 77 37 23 14 12 12 10 6 7 10 9 4 2 6 11 10 5 4 6 1 351 357 18 22 71 189 207 212 214 218 225 231 233 234 233 232 234 235 236 237 238 239 241 242 242 243 244 246 247 249 249 249 249 251
149 144 133 187 179 146 147 217 251 321 325 314 328 358 18 7 347 2 229 287 14 39 26 3 351 357 3 3 358 352 337 220 141 33 16 7 4 4 2 2 3 2 359 356 354 357 4 6 1 359 1 360 352 346 348 355 24 77 201 217 216 217 223 228 232 233 231 230 233 237 238 238 239 240 241 241 241 243 245 246 248 250 250 249 250 250
112 154 165 176 188 137 148 252 296 336 300 267 269 307 328 311 277 229 182 246 359 26 12 359 338 338 2 8 3 1 359 342 177 4 1 0 358 356 354 355 358 357 350 345 344 346 351 355 355 353 350 350 354 354 347 336 334 11 29 204 210 214 222 228 232 234 232 231 234 239 241 241 242 242 242 242 242 244 246 247 249 250 251 251 251 252
42 61 131 143 164 139 153 226 244 223 236 246 264 292 315 314 278 217 202 241 359 8 359 354 343 335 346 5 11 14 17 23 295 324 343 350 350 349 349 348 350 352 346 337 331 333 338 342 342 341 338 337 344 352 353 343 315 309 330 323 223 213 216 226 235 239 239 237 237 238 241 244 245 245 244 244 245 246 247 248 250 251 251 251 252 253
27 23 78 136 200 195 190 223 225 218 239 229 259 298 319 328 310 258 250 251 349 351 348 348 344 338 340 350 4 28 48 350 307 320 337 344 341 341 344 343 345 345 341 335 329 325 325 328 331 330 325 323 329 339 347 347 333 313 310 304 284 260 239 228 229 238 243 242 239 239 241 243 245 245 246 247 248 249 250 250 251 251 251 251 252 253
8 3 79 144 205 221 224 239 256 272 240 214 278 306 326 341 324 230 218 309 338 337 340 346 345 347 352 348 346 346 329 320 318 323 333 337 337 340 342 340 339 339 335 332 332 330 325 322 324 324 317 313 317 326 336 340 338 331 321 307 292 285 282 271 252 238 240 244 243 243 244 245 247 247 248 249 250 251 251 252 252 252 252 252 252 252
24 358 236 161 181 234 230 236 271 270 221 349 323 319 330 2 210 235 301 329 332 331 338 344 340 343 350 345 336 328 323 323 324 325 330 333 334 337 339 338 336 335 333 328 326 331 331 326 323 322 316 310 311 317 326 331 329 327 324 315 304 294 285 279 273 265 261 262 259 252 248 248 250 251 252 253 252 251 251 253 253 252 252 252 251 251
173 146 263 209 174 162 220 238 264 252 136 32 359 348 48 176 267 306 319 323 329 339 339 335 330 333 336 333 328 325 320 320 322 324 326 329 329 329 333 335 333 332 335 334 327 324 327 328 329 327 321 314 309 309 316 321 319 317 317 315 307 300 292 285 280 277 275 271 266 261 257 255 256 258 258 258 255 253 253 253 252 252 251 250 249 249
187 163 190 231 209 156 194 220 214 179 143 45 22 258 262 286 296 311 316 313 318 329 329 323 318 318 321 322 321 318 314 312 313 316 319 320 320 322 326 328 328 328 331 335 330 321 318 320 325 329 328 319 311 311 316 319 315 312 312 311 306 301 296 290 283 279 276 272 267 263 262 261 262 263 263 262 259 256 255 253 252 251 250 249 248 248
211 190 169 200 220 199 214 239 243 248 280 298 263 260 290 294 285 291 303 306 311 315 315 315 312 310 310 311 310 308 308 306 304 306 309 310 309 312 315 317 321 323 325 330 329 322 315 314 317 323 327 323 313 309 313 317 315 311 309 307 303 299 295 288 282 278 274 271 270 267 264 263 263 264 266 265 262 258 255 253 251 249 248 247 246 246
211 190 155 142 252 278 272 261 260 268 277 277 274 291 301 290 274 286 300 304 307 309 308 308 308 306 306 303 299 297 298 299 298 297 299 302 302 302 304 306 311 316 321 325 326 321 316 314 313 314 320 324 319 308 305 311 315 313 310 307 301 297 294 288 282 279 275 272 271 270 269 269 267 265 266 266 264 260 256 252 250 249 247 246 245 245
218 187 175 167 221 294 288 257 242 250 260 272 289 297 292 279 280 294 303 305 307 308 308 306 304 303 300 295 293 293 293 293 294 293 293 295 296 295 296 298 300 306 313 319 322 321 319 318 315 311 313 319 322 315 308 309 312 313 313 310 304 300 298 295 288 282 278 277 276 275 276 276 274 272 270 268 265 262 258 253 249 247 246 245 244 244
182 176 189 212 191 205 260 266 263 266 272 281 288 285 275 286 301 306 308 309 310 311 310 309 306 303 298 292 290 291 292 291 291 290 290 292 293 292 291 291 293 296 302 311 316 316 316 319 318 311 308 313 319 319 314 311 310 312 312 310 307 305 304 302 298 291 286 284 284 283 282 280 278 277 276 273 269 264 259 255 250 245 244 245 245 245
145 159 185 197 207 253 280 277 273 277 281 278 265 253 270 303 312 313 313 315 316 316 315 312 307 303 299 295 292 291 290 289 288 287 287 287 288 288 287 286 287 289 293 302 310 311 311 315 316 311 306 308 313 318 319 316 312 310 310 309 307 307 308 309 306 300 293 288 287 288 288 284 279 277 278 278 276 269 261 257 254 249 247 247 248 248
150 173 173 133 245 269 257 252 246 251 273 268 255 260 285 303 310 311 312 315 320 321 319 315 310 305 299 294 292 290 288 287 288 287 284 281 281 283 283 283 283 284 286 292 302 306 304 306 310 310 307 305 307 312 318 320 317 313 312 310 309 309 310 311 311 307 302 296 291 289 292 290 284 278 277 279 281 277 268 260 256 253 251 250 251 251
193 206 189 177 210 235 242 252 248 231 249 270 280 286 293 302 307 305 306 312 319 320 318 315 311 307 301 296 292 290 289 288 288 287 283 279 277 276 277 278 279 281 282 284 292 300 299 298 302 307 305 302 304 306 310 315 319 319 316 312 311 310 310 310 310 308 306 303 297 293 293 293 290 285 281 279 281 281 274 263 255 252 251 251 251 252
Height
1490 1496 1498 1497 1496 1495 1495 1495 1496 1496 1497 1500 1502 1504 1504 1505 1504 1498 1495 1491 1490 1499 1500 1496 1497 1497 1498 1499 1497 1500 1503 1505 1507 1508 1510 1511 1512 1513 1514 1516 1517 1519 1522 1526 1528 1530 1532 1534 1536 1538 1540 1543 1545 1547 1549 1550 1552 1553 1555 1557 1558 1560 1562 1563 1565 1567 1569 1570 1572 1574 1575 1576 1578 1580 1581 1582 1583 1584 1585 1586 1587 1588 1588 1589 1589 1590
1491 1497 1496 1491 1492 1492 1492 1493 1494 1495 1496 1499 1501 1503 1504 1505 1503 1495 1492 1489 1488 1497 1497 1492 1496 1497 1496 1498 1497 1498 1500 1500 1501 1503 1505 1507 1509 1511 1513 1514 1516 1518 1521 1525 1527 1528 1531 1533 1534 1537 1538 1541 1543 1545 1547 1549 1550 1552 1554 1555 1557 1558 1560 1562 1564 1566 1567 1569 1571 1572 1574 1576 1578 1579 1581 1582 1583 1584 1585 1586 1587 1588 1588 1589 1590 1590
1495 1496 1491 1489 1490 1491 1492 1492 1494 1495 1496 1498 1500 1503 1506 1504 1501 1495 1489 1486 1488 1495 1496 1492 1497 1499 1496 1496 1496 1495 1496 1496 1498 1500 1500 1503 1506 1508 1510 1512 1514 1517 1520 1522 1524 1526 1528 1530 1532 1534 1536 1538 1541 1543 1545 1547 1549 1551 1552 1554 1556 1557 1559 1561 1563 1565 1566 1569 1571 1573 1574 1576 1578 1579 1581 1582 1583 1584 1585 1586 1587 1588 1588 1589 1590 1591
1499 1493 1487 1488 1489 1491 1493 1492 1494 1496 1496 1498 1499 1503 1506 1502 1503 1502 1492 1487 1488 1492 1494 1492 1495 1498 1495 1496 1495 1495 1495 1497 1500 1502 1502 1504 1504 1505 1507 1510 1512 1514 1516 1518 1521 1523 1525 1528 1530 1531 1533 1536 1539 1541 1543 1545 1547 1549 1550 1552 1554 1556 1558 1560 1562 1564 1566 1569 1571 1573 1575 1576 1578 1579 1581 1582 1583 1584 1585 1585 1586 1587 1588 1589 1590 1591
1495 1488 1484 1487 1489 1491 1494 1493 1495 1498 1499 1497 1496 1499 1502 1500 1503 1502 1494 1491 1490 1492 1491 1492 1500 1500 1494 1496 1496 1495 1497 1498 1500 1502 1503 1504 1504 1505 1507 1509 1510 1511 1513 1515 1517 1520 1522 1524 1527 1528 1531 1534 1536 1538 1540 1543 1545 1547 1549 1551 1553 1555 1557 1559 1561 1563 1565 1568 1571 1573 1575 1576 1578 1579 1580 1580 1581 1582 1584 1585 1586 1587 1588 1589 1590 1591
1490 1484 1484 1488 1489 1491 1494 1494 1494 1497 1500 1499 1492 1491 1495 1498 1498 1497 1496 1497 1500 1502 1492 1492 1511 1509 1494 1495 1497 1495 1497 1497 1498 1499 1500 1502 1502 1505 1506 1507 1509 1510 1511 1513 1515 1517 1519 1522 1524 1527 1529 1531 1533 1535 1538 1541 1543 1545 1547 1549 1552 1554 1556 1558 1560 1562 1564 1567 1569 1571 1573 1574 1575 1577 1578 1578 1579 1581 1582 1584 1586 1587 1588 1589 1590 1591
1486 1483 1484 1487 1489 1491 1493 1494 1491 1493 1501 1501 1489 1484 1490 1494 1495 1496 1498 1501 1505 1504 1490 1488 1508 1511 1499 1495 1493 1493 1496 1496 1497 1497 1496 1498 1500 1500 1502 1504 1506 1508 1510 1512 1514 1516 1518 1520 1522 1524 1526 1528 1530 1533 1536 1539 1541 1544 1546 1548 1550 1552 1555 1557 1559 1561 1563 1565 1567 1569 1571 1572 1573 1574 1576 1577 1579 1581 1582 1584 1585 1587 1587 1588 1589 1590
1483 1483 1485 1486 1488 1491 1494 1493 1488 1489 1499 1496 1481 1481 1488 1491 1494 1494 1495 1500 1499 1496 1493 1490 1496 1508 1506 1495 1489 1491 1496 1498 1496 1494 1492 1493 1495 1496 1499 1501 1503 1505 1507 1510 1512 1514 1516 1517 1518 1520 1522 1525 1528 1531 1534 1537 1539 1542 1544 1546 1549 1551 1553 1555 1557 1559 1561 1563 1565 1568 1570 1571 1572 1573 1575 1577 1579 1581 1582 1584 1585 1586 1587 1588 1589 1590
1481 1483 1485 1485 1489 1492 1490 1487 1483 1486 1494 1485 1475 1481 1486 1487 1490 1490 1491 1496 1494 1496 1505 1498 1494 1509 1509 1492 1488 1491 1496 1499 1494 1489 1487 1488 1491 1493 1495 1498 1500 1502 1505 1507 1510 1511 1514 1515 1516 1518 1521 1524 1527 1530 1532 1534 1537 1540 1542 1545 1547 1549 1552 1554 1556 1558 1560 1562 1564 1566 1568 1570 1572 1573 1575 1577 1579 1580 1582 1583 1584 1585 1586 1587 1589 1589
1480 1481 1481 1483 1487 1488 1483 1479 1478 1484 1485 1476 1474 1481 1483 1485 1487 1487 1490 1492 1494 1503 1511 1502 1496 1508 1508 1493 1493 1496 1496 1496 1487 1481 1482 1483 1487 1489 1491 1495 1497 1499 1502 1504 1507 1509 1511 1514 1515 1518 1520 1523 1525 1528 1530 1533 1536 1538 1541 1543 1545 1547 1550 1552 1554 1556 1558 1561 1562 1565 1567 1569 1571 1572 1574 1576 1578 1579 1580 1582 1583 1584 1585 1586 1588 1589
1479 1478 1478 1480 1481 1479 1476 1475 1475 1477 1476 1472 1477 1481 1483 1487 1487 1488 1491 1490 1502 1511 1505 1496 1493 1500 1504 1496 1493 1492 1485 1481 1477 1476 1478 1479 1482 1484 1486 1490 1493 1496 1499 1501 1505 1507 1510 1512 1515 1517 1519 1521 1523 1526 1529 1531 1533 1536 1538 1541 1543 1545 1548 1550 1553 1555 1557 1559 1561 1563 1565 1567 1570 1571 1573 1574 1576 1578 1579 1580 1582 1583 1584 1586 1587 1588
1479 1478 1478 1477 1477 1475 1474 1474 1472 1471 1470 1473 1480 1483 1487 1491 1490 1494 1496 1494 1510 1514 1495 1489 1492 1498 1504 1495 1485 1479 1470 1466 1468 1470 1473 1473 1476 1479 1482 1485 1488 1492 1495 1498 1502 1504 1507 1510 1513 1515 1516 1519 1522 1524 1526 1528 1531 1533 1536 1539 1541 1543 1546 1548 1551 1553 1555 1557 1559 1561 1564 1566 1568 1570 1571 1573 1574 1576 1577 1579 1581 1582 1583 1585 1586 1587
1481 1479 1479 1477 1476 1476 1476 1477 1474 1471 1471 1476 1482 1486 1494 1501 1501 1506 1508 1505 1511 1507 1490 1487 1491 1499 1500 1485 1475 1473 1466 1463 1463 1463 1466 1468 1470 1474 1477 1481 1485 1488 1491 1494 1498 1501 1504 1506 1508 1511 1513 1516 1518 1520 1523 1525 1528 1530 1533 1536 1538 1540 1543 1546 1549 1551 1553 1555 1557 1559 1562 1564 1567 1569 1570 1572 1573 1575 1576 1578 1580 1581 1582 1583 1584 1585
1486 1483 1480 1479 1478 1478 1479 1481 1482 1477 1475 1477 1481 1486 1496 1505 1512 1517 1517 1514 1512 1502 1490 1489 1492 1498 1495 1477 1467 1466 1461 1458 1458 1459 1461 1463 1466 1469 1472 1477 1481 1484 1488 1490 1494 1497 1499 1502 1504 1507 1510 1512 1514 1516 1519 1522 1524 1527 1530 1533 1536 1538 1541 1543 1546 1549 1551 1553 1555 1558 1560 1563 1565 1567 1569 1570 1572 1574 1575 1577 1578 1580 1581 1582 1583 1584
1496 1493 1485 1484 1485 1482 1480 1482 1483 1480 1478 1477 1475 1478 1485 1492 1502 1511 1510 1508 1507 1500 1495 1495 1495 1495 1489 1473 1463 1460 1456 1455 1456 1457 1458 1460 1462 1466 1470 1475 1478 1481 1484 1487 1490 1492 1495 1498 1501 1504 1507 1509 1512 1514 1516 1519 1521 1524 1527 1529 1532 1535 1538 1541 1544 1547 1549 1551 1553 1556 1558 1561 1563 1565 1567 1569 1571 1572 1574 1576 1577 1579 1580 1581 1582 1583
1501 1497 1488 1486 1486 1483 1482 1481 1479 1479 1480 1477 1473 1476 1481 1481 1484 1492 1498 1496 1495 1498 1499 1496 1491 1485 1477 1467 1463 1462 1459 1458 1458 1457 1457 1458 1460 1464 1469 1472 1474 1476 1480 1482 1485 1488 1491 1495 1498 1501 1504 1506 1509 1512 1514 1516 1518 1520 1524 1527 1530 1533 1536 1538 1541 1544 1547 1549 1552 1554 1556 1559 1561 1564 1566 1567 1569 1571 1573 1574 1576 1577 1579 1580 1581 1583
1505 1497 1489 1487 1485 1482 1484 1482 1478 1480 1482 1478 1478 1482 1481 1478 1477 1485 1494 1492 1492 1501 1502 1494 1488 1480 1473 1469 1467 1466 1463 1461 1461 1460 1459 1457 1458 1462 1464 1465 1468 1470 1473 1476 1479 1482 1486 1491 1494 1497 1500 1503 1506 1509 1511 1513 1515 1518 1521 1524 1527 1531 1533 1536 1538 1541 1544 1547 1549 1552 1554 1556 1559 1561 1563 1565 1567 1569 1571 1573 1574 1576 1577 1579 1580 1582
1506 1499 1492 1491 1490 1485 1482 1481 1477 1478 1480 1482 1487 1485 1477 1477 1477 1481 1492 1499 1503 1509 1501 1492 1490 1488 1488 1486 1476 1471 1470 1466 1463 1462 1460 1458 1458 1460 1459 1460 1462 1464 1467 1471 1474 1479 1483 1487 1491 1494 1497 1500 1502 1505 1508 1510 1513 1516 1519 1522 1525 1528 1530 1533 1536 1539 1542 1544 1547 1549 1551 1554 1556 1559 1561 1563 1566 1568 1569 1571 1572 1574 1576 1577 1579 1580
1507 1502 1496 1493 1493 1488 1482 1483 1483 1480 1479 1482 1485 1482 1479 1485 1487 1484 1492 1501 1508 1513 1504 1493 1494 1497 1503 1500 1487 1481 1479 1473 1467 1463 1460 1458 1457 1457 1456 1457 1459 1462 1465 1469 1472 1475 1479 1482 1486 1489 1493 1496 1499 1503 1506 1509 1512 1515 1518 1520 1523 1525 1528 1531 1535 1537 1539 1542 1544 1547 1549 1551 1554 1556 1559 1561 1564 1566 1567 1569 1571 1572 1574 1576 1577 1579
1506 1506 1502 1495 1493 1490 1488 1492 1499 1495 1485 1481 1483 1485 1486 1492 1493 1491 1493 1494 1499 1510 1509 1500 1500 1504 1502 1497 1492 1487 1483 1477 1472 1466 1460 1457 1454 1452 1452 1453 1457 1460 1463 1465 1468 1470 1473 1477 1481 1485 1489 1493 1496 1500 1504 1508 1511 1512 1515 1518 1521 1524 1527 1530 1532 1534 1536 1539 1541 1544 1547 1549 1552 1554 1557 1559 1562 1564 1565 1567 1569 1570 1572 1574 1575 1577
1507 1510 1510 1501 1495 1496 1500 1503 1506 1505 1498 1494 1497 1502 1502 1500 1497 1493 1492 1491 1493 1502 1505 1504 1511 1511 1496 1489 1491 1487 1482 1479 1475 1470 1463 1457 1451 1448 1448 1449 1452 1456 1458 1461 1464 1466 1470 1474 1477 1482 1486 1490 1494 1498 1501 1505 1508 1510 1513 1516 1518 1521 1524 1526 1529 1531 1534 1536 1539 1542 1544 1547 1550 1552 1555 1557 1559 1561 1563 1565 1567 1568 1570 1572 1574 1575
1511 1515 1516 1513 1506 1506 1508 1506 1503 1504 1504 1505 1508 1513 1514 1510 1508 1505 1501 1498 1499 1502 1503 1506 1516 1511 1491 1485 1488 1484 1481 1480 1474 1470 1465 1457 1451 1447 1446 1447 1448 1451 1453 1456 1460 1463 1467 1470 1474 1479 1484 1488 1492 1495 1498 1501 1505 1508 1510 1513 1516 1519 1521 1523 1526 1529 1532 1534 1537 1539 1542 1544 1547 1550 1552 1555 1557 1559 1561 1563 1565 1567 1569 1570 1572 1573
1513 1516 1519 1520 1516 1512 1510 1507 1505 1505 1503 1505 1509 1514 1516 1514 1518 1523 1519 1514 1512 1510 1505 1504 1509 1503 1488 1484 1486 1482 1482 1480 1474 1470 1466 1459 1453 1447 1445 1447 1448 1449 1450 1453 1457 1460 1464 1467 1472 1476 1480 1485 1488 1491 1495 1498 1501 1504 1507 1510 1513 1515 1518 1521 1524 1527 1530 1532 1534 1537 1539 1542 1544 1547 1549 1552 1554 1556 1558 1560 1563 1565 1566 1568 1570 1571
1512 1517 1521 1522 1518 1513 1509 1506 1505 1504 1505 1511 1514 1515 1518 1517 1520 1524 1522 1520 1520 1519 1517 1513 1508 1499 1487 1484 1485 1483 1483 1480 1476 1472 1467 1462 1455 1449 1446 1447 1450 1452 1454 1457 1460 1462 1465 1468 1471 1475 1478 1481 1485 1488 1492 1495 1498 1501 1504 1507 1510 1512 1515 1518 1522 1525 1527 1529 1532 1534 1537 1539 1541 1544 1546 1548 1551 1553 1555 1558 1560 1562 1564 1566 1567 1569
1515 1520 1522 1524 1525 1523 1518 1514 1512 1510 1513 1521 1522 1519 1520 1519 1518 1517 1517 1519 1522 1524 1525 1522 1516 1504 1491 1486 1486 1484 1483 1481 1477 1475 1471 1466 1461 1455 1451 1450 1452 1456 1458 1461 1464 1466 1469 1470 1471 1473 1474 1477 1481 1484 1488 1491 1495 1498 1501 1504 1507 1509 1513 1516 1519 1522 1524 1527 1529 1532 1534 1536 1538 1540 1542 1545 1547 1549 1552 1555 1557 1560 1561 1563 1565 1567
1519 1523 1523 1526 1534 1536 1533 1531 1529 1526 1524 1525 1524 1522 1521 1520 1519 1520 1522 1525 1527 1527 1523 1520 1520 1511 1495 1488 1487 1485 1485 1483 1479 1476 1473 1470 1468 1464 1460 1458 1458 1459 1461 1462 1465 1467 1470 1472 1474 1475 1476 1478 1480 1483 1486 1489 1492 1495 1498 1501 1504 1507 1510 1513 1516 1519 1521 1524 1527 1529 1531 1533 1535 1537 1539 1541 1544 1546 1549 1552 1554 1557 1558 1561 1563 1564
1522 1525 1526 1528 1533 1536 1535 1534 1532 1531 1531 1529 1526 1524 1523 1521 1521 1521 1526 1530 1529 1528 1521 1515 1518 1514 1500 1494 1492 1489 1488 1487 1483 1480 1478 1475 1474 1472 1470 1467 1463 1463 1464 1464 1465 1467 1470 1473 1476 1479 1481 1482 1484 1486 1488 1490 1492 1494 1497 1499 1502 1505 1508 1511 1514 1516 1519 1521 1523 1526 1528 1530 1532 1534 1536 1539 1541 1544 1546 1549 1551 1553 1555 1558 1560 1561
1525 1528 1529 1530 1532 1534 1533 1533 1531 1530 1532 1531 1529 1527 1524 1522 1521 1522 1527 1527 1525 1529 1524 1512 1513 1516 1506 1500 1499 1495 1493 1490 1488 1486 1485 1482 1480 1478 1476 1472 1468 1467 1467 1467 1467 1468 1469 1472 1474 1477 1480 1483 1485 1488 1490 1491 1493 1495 1497 1499 1501 1503 1506 1509 1511 1514 1516 1518 1520 1522 1524 1527 1529 1532 1534 1536 1538 1541 1543 1545 1548 1550 1552 1554 1556 1558
1527 1531 1531 1531 1534 1534 1532 1531 1531 1531 1531 1530 1529 1528 1525 1522 1522 1522 1524 1521 1521 1528 1524 1512 1512 1515 1508 1503 1502 1500 1498 1495 1493 1492 1489 1486 1483 1481 1479 1475 1472 1472 1471 1471 1472 1471 1471 1471 1473 1475 1478 1481 1484 1486 1488 1490 1492 1495 1497 1498 1501 1502 1504 1507 1509 1511 1513 1515 1517 1519 1521 1524 1527 1529 1531 1534 1536 1538 1540 1542 1544 1546 1549 1550 1552 1554
1528 1531 1531 1532 1534 1533 1531 1531 1530 1531 1532 1530 1529 1527 1524 1522 1521 1520 1519 1517 1518 1519 1515 1510 1512 1512 1508 1506 1504 1502 1502 1499 1496 1493 1491 1488 1486 1485 1483 1481 1479 1477 1476 1476 1477 1476 1475 1474 1473 1474 1477 1479 1482 1484 1486 1487 1489 1492 1494 1496 1499 1501 1503 1505 1507 1509 1510 1512 1513 1516 1519 1521 1524 1526 1528 1530 1532 1534 1537 1539 1541 1543 1545 1546 1548 1550
1529 1531 1531 1532 1535 1535 1532 1531 1531 1531 1531 1530 1528 1525 1523 1521 1519 1517 1516 1515 1515 1515 1511 1510 1512 1510 1507 1506 1505 1504 1504 1500 1496 1494 1493 1492 1490 1488 1487 1485 1483 1482 1481 1480 1480 1480 1478 1476 1475 1475 1476 1477 1480 1482 1484 1486 1487 1489 1492 1494 1496 1498 1501 1503 1504 1506 1508 1509 1511 1514 1516 1518 1520 1523 1525 1527 1529 1531 1533 1535 1537 1539 1541 1543 1544 1546
1530 1532 1532 1533 1538 1538 1534 1533 1532 1530 1529 1528 1526 1523 1522 1521 1519 1517 1516 1514 1514 1514 1510 1509 1513 1515 1511 1508 1506 1505 1504 1501 1500 1498 1497 1496 1493 1491 1491 1489 1487 1486 1484 1482 1482 1482 1481 1479 1477 1477 1477 1478 1479 1480 1482 1484 1486 1488 1490 1492 1494 1496 1498 1500 1501 1503 1505 1506 1509 1511 1513 1515 1517 1519 1521 1523 1525 1527 1529 1531 1533 1535 1537 1538 1540 1542
1530 1532 1533 1536 1540 1540 1537 1534 1532 1531 1532 1530 1525 1522 1521 1520 1519 1517 1516 1516 1515 1514 1513 1514 1519 1519 1515 1511 1509 1507 1505 1504 1504 1502 1501 1499 1495 1493 1494 1493 1490 1488 1486 1485 1484 1484 1483 1482 1481 1480 1480 1480 1480 1480 1481 1482 1483 1485 1487 1489 1491 1493 1496 1498 1499 1501 1502 1503 1506 1507 1509 1512 1514 1516 1518 1519 1521 1523 1525 1527 1529 1530 1532 1534 1536 1538
1530 1531 1534 1537 1540 1541 1538 1534 1533 1536 1538 1530 1522 1520 1520 1519 1518 1517 1518 1518 1517 1515 1515 1517 1519 1518 1515 1513 1512 1510 1508 1507 1506 1505 1503 1501 1497 1495 1496 1495 1493 1490 1488 1487 1487 1486 1485 1484 1483 1482 1481 1481 1481 1481 1481 1481 1481 1482 1484 1486 1488 1491 1493 1495 1499 1502 1502 1502 1503 1505 1507 1510 1511 1512 1514 1516 1518 1520 1522 1523 1525 1526 1528 1530 1532 1534
1531 1532 1535 1536 1539 1540 1538 1537 1539 1540 1534 1524 1519 1519 1518 1517 1517 1517 1518 1520 1519 1517 1516 1517 1517 1517 1516 1515 1514 1512 1511 1510 1507 1505 1503 1502 1499 1497 1497 1496 1493 1491 1490 1489 1489 1490 1488 1485 1484 1483 1482 1482 1482 1481 1481 1481 1481 1481 1482 1484 1486 1489 1490 1492 1495 1499 1502 1503 1503 1504 1505 1507 1508 1510 1511 1513 1515 1517 1518 1520 1521 1523 1525 1527 1528 1529
1532 1533 1534 1536 1538 1540 1541 1542 1540 1533 1526 1521 1519 1518 1517 1518 1518 1518 1519 1519 1518 1518 1518 1517 1517 1517 1516 1516 1514 1512 1510 1509 1507 1505 1504 1504 1502 1500 1500 1498 1495 1492 1492 1491 1491 1492 1491 1488 1486 1484 1483 1483 1482 1481 1481 1480 1480 1480 1480 1481 1483 1485 1487 1489 1490 1492 1495 1499 1502 1502 1502 1504 1505 1507 1509 1510 1512 1513 1515 1516 1518 1520 1522 1523 1525 1526
1532 1532 1534 1536 1538 1539 1542 1542 1536 1530 1528 1526 1523 1522 1522 1522 1522 1523 1523 1520 1517 1518 1518 1518 1518 1517 1516 1515 1513 1510 1508 1507 1507 1506 1506 1505 1504 1503 1502 1500 1496 1493 1493 1493 1493 1492 1492 1490 1487 1485 1484 1484 1483 1481 1480 1479 1479 1479 1479 1480 1481 1482 1484 1487 1488 1488 1490 1493 1496 1498 1499 1501 1502 1504 1505 1507 1508 1509 1511 1512 1514 1516 1518 1520 1521 1523
1531 1531 1532 1535 1536 1536 1540 1541 1539 1538 1535 1530 1526 1525 1524 1524 1523 1524 1525 1523 1517 1517 1518 1517 1517 1516 1515 1514 1513 1510 1507 1506 1508 1509 1508 1507 1505 1503 1501 1499 1497 1495 1494 1494 1494 1492 1491 1490 1487 1486 1485 1484 1484 1483 1480 1478 1478 1478 1479 1480 1480 1481 1483 1484 1486 1487 1488 1489 1492 1495 1496 1498 1499 1500 1502 1503 1504 1505 1507 1509 1511 1512 1514 1516 1517 1518
1531 1531 1531 1534 1536 1537 1539 1541 1540 1538 1533 1529 1526 1524 1522 1522 1522 1523 1527 1524 1517 1516 1518 1516 1515 1515 1513 1513 1513 1511 1510 1511 1511 1509 1508 1507 1506 1503 1502 1500 1498 1496 1495 1494 1493 1492 1491 1490 1488 1487 1485 1483 1483 1483 1481 1479 1478 1479 1479 1480 1481 1481 1482 1482 1483 1485 1486 1487 1489 1492 1493 1495 1496 1497 1498 1499 1501 1502 1503 1505 1507 1509 1510 1512 1513 1515
1532 1533 1534 1535 1536 1536 1537 1538 1536 1532 1529 1528 1527 1524 1521 1520 1519 1524 1530 1525 1516 1516 1518 1516 1516 1515 1513 1512 1512 1511 1513 1514 1512 1509 1508 1507 1506 1504 1503 1501 1499 1497 1496 1494 1493 1491 1490 1490 1488 1487 1485 1483 1482 1481 1480 1479 1479 1478 1478 1480 1481 1480 1480 1480 1480 1481 1483 1485 1487 1489 1490 1491 1492 1493 1495 1496 1497 1499 1500 1501 1503 1505 1506 1508 1509 1511
1537 1538 1538 1538 1537 1536 1536 1536 1533 1528 1526 1527 1526 1523 1521 1520 1521 1526 1527 1521 1516 1517 1517 1516 1516 1516 1515 1514 1512 1512 1512 1512 1511 1509 1508 1507 1505 1504 1503 1502 1501 1499 1497 1495 1493 1491 1489 1488 1487 1486 1485 1484 1481 1479 1478 1478 1478 1477 1477 1478 1479 1479 1478 1478 1478 1479 1480 1481 1483 1484 1486 1487 1489 1490 1491 1493 1494 1496 1497 1498 1499 1500 1502 1503 1505 1507
1539 1540 1539 1539 1538 1538 1537 1537 1534 1529 1526 1525 1524 1521 1520 1522 1524 1523 1519 1517 1518 1518 1516 1516 1516 1515 1515 1515 1513 1512 1512 1510 1510 1508 1506 1505 1504 1502 1501 1500 1499 1499 1497 1494 1491 1489 1487 1486 1485 1484 1482 1481 1479 1477 1476 1476 1476 1476 1476 1477 1477 1477 1477 1477 1477 1477 1478 1479 1479 1480 1481 1483 1485 1486 1488 1489 1491 1492 1493 1494 1496 1497 1498 1499 1501 1502
1536 1537 1538 1537 1537 1538 1540 1539 1535 1530 1525 1523 1522 1522 1521 1522 1522 1519 1516 1517 1518 1517 1516 1516 1515 1514 1515 1514 1513 1512 1510 1509 1509 1508 1505 1504 1502 1501 1499 1498 1497 1497 1495 1492 1489 1487 1485 1484 1483 1482 1479 1478 1476 1475 1474 1473 1473 1474 1474 1475 1475 1474 1474 1474 1475 1475 1476 1477 1477 1477 1477 1479 1481 1482 1483 1484 1486 1488 1489 1490 1492 1493 1494 1495 1497 1498
1534 1535 1536 1534 1532 1535 1538 1534 1527 1522 1521 1521 1522 1522 1522 1521 1519 1518 1517 1516 1515 1516 1516 1515 1514 1514 1514 1512 1511 1511 1510 1508 1507 1507 1506 1504 1501 1500 1499 1497 1496 1495 1495 1493 1490 1487 1484 1482 1481 1479 1478 1476 1474 1473 1472 1471 1471 1470 1471 1471 1471 1471 1471 1471 1472 1473 1473 1474 1475 1475 1475 1476 1477 1478 1479 1480 1481 1483 1484 1486 1487 1488 1490 1491 1492 1493
1529 1529 1530 1529 1528 1529 1528 1523 1518 1517 1518 1520 1520 1520 1519 1518 1518 1517 1516 1515 1514 1515 1514 1513 1512 1512 1512 1511 1510 1508 1507 1507 1505 1504 1504 1504 1501 1499 1498 1496 1495 1494 1493 1492 1490 1487 1484 1481 1478 1477 1475 1474 1472 1471 1470 1469 1469 1468 1468 1467 1468 1469 1469 1469 1470 1470 1471 1471 1472 1472 1472 1473 1474 1475 1475 1476 1477 1478 1479 1481 1483 1484 1485 1486 1488 1489
1525 1526 1527 1527 1526 1525 1520 1516 1515 1516 1516 1517 1517 1517 1517 1516 1516 1515 1514 1513 1512 1512 1512 1511 1510 1509 1509 1510 1508 1506 1505 1504 1502 1500 1500 1501 1500 1499 1497 1496 1494 1493 1491 1490 1489 1486 1483 1479 1477 1474 1472 1471 1470 1470 1469 1468 1467 1467 1466 1465 1466 1467 1468 1468 1468 1468 1468 1468 1468 1468 1469 1469 1469 1470 1471 1472 1474 1474 1475 1476 1478 1479 1480 1482 1483 1483
1524 1524 1525 1525 1526 1525 1520 1514 1513 1514 1514 1514 1514 1514 1514 1514 1513 1513 1512 1510 1510 1509 1509 1508 1507 1506 1506 1506 1505 1504 1503 1501 1499 1497 1495 1496 1496 1496 1495 1494 1492 1491 1490 1488 1486 1485 1482 1479 1476 1473 1470 1469 1469 1468 1468 1468 1467 1465 1465 1464 1464 1464 1464 1464 1464 1464 1464 1465 1465 1465 1465 1465 1465 1466 1467 1468 1469 1470 1471 1472 1473 1474 1475 1476 1477 1478
1522 1522 1524 1523 1523 1522 1517 1512 1511 1512 1512 1511 1511 1511 1511 1511 1510 1509 1509 1508 1506 1506 1505 1504 1504 1503 1502 1501 1501 1500 1499 1498 1497 1494 1492 1491 1491 1491 1491 1491 1490 1488 1487 1486 1485 1483 1481 1479 1476 1474 1471 1469 1468 1467 1466 1465 1465 1464 1463 1462 1462 1461 1460 1460 1460 1460 1460 1460 1460 1461 1461 1461 1462 1462 1463 1464 1465 1465 1466 1467 1468 1469 1469 1470 1471 1472
1520 1521 1520 1520 1520 1518 1514 1510 1510 1510 1508 1508 1508 1508 1508 1508 1507 1506 1505 1504 1503 1502 1501 1500 1500 1499 1498 1497 1497 1496 1495 1494 1494 1492 1489 1487 1486 1486 1487 1487 1486 1485 1484 1484 1483 1481 1480 1478 1476 1474 1472 1470 1468 1466 1464 1462 1462 1462 1461 1460 1460 1458 1457 1456 1456 1455 1455 1455 1455 1456 1456 1457 1458 1459 1459 1460 1460 1460 1461 1461 1463 1463 1463 1464 1465 1467
1517 1517 1517 1518 1519 1516 1510 1507 1507 1508 1506 1505 1505 1506 1506 1506 1505 1503 1502 1501 1500 1499 1497 1496 1495 1494 1494 1493 1493 1492 1490 1489 1490 1490 1487 1484 1483 1483 1484 1483 1483 1482 1481 1480 1480 1479 1478 1477 1475 1473 1471 1469 1467 1465 1463 1461 1460 1459 1459 1458 1457 1455 1454 1453 1452 1452 1451 1451 1451 1451 1452 1453 1454 1455 1456 1456 1455 1455 1454 1455 1456 1457 1458 1459 1461 1462
1509 1508 1510 1512 1512 1508 1503 1503 1504 1505 1504 1502 1503 1503 1504 1503 1503 1502 1501 1500 1498 1497 1495 1493 1491 1489 1488 1488 1488 1487 1485 1484 1485 1485 1484 1481 1479 1480 1480 1481 1480 1479 1477 1477 1476 1475 1475 1475 1474 1472 1470 1468 1466 1464 1462 1460 1458 1457 1457 1456 1454 1452 1451 1450 1450 1449 1448 1448 1448 1448 1448 1449 1450 1451 1452 1451 1451 1450 1450 1450 1451 1452 1453 1455 1456 1458